User: anonymous   Login
Location: Saint-Usage
(47.1052°N, 5.2587°E)
Time: 06:20:39
(UTC+02:00)
Language:

NOAA 19 - Orbit

View from above orbital plane
View from above orbital plane
View from above satellite
View from above satellite

Ground track
Ground track

The orbit data is extracted from the following two-line orbital elements,

1 33591U 09005A   22274.80769135  .00000181  00000-0  12259-3 0  9993
2 33591  99.1390 311.1361 0013027 247.7289 112.2501 14.12615439703202
Epoch (UTC): 01 October 2022 19:23:04
Eccentricity: 0.0013027
inclination: 99.1390°
perigee height: 841 km
apogee height: 860 km
right ascension of ascending node: 311.1361°
argument of perigee: 247.7289°
revolutions per day: 14.12615439
mean anomaly at epoch: 112.2501°
orbit number at epoch: 70320

The dashed part of the orbit path shows where the satellite is in the earth's shadow,  

DLR